Lawrence, MA

1:17 PM EDT on April 26, 2017 (GMT -0400)
Lawrence Municipal

Weather History for KLWM - July, 2013

Change the Weather History Date:

Saturday, July 20, 2013

  Actual Average Record
Temperature  
Mean Temperature 86 °F -  
Max Temperature 93 °F 83 °F 96 °F (1946)
Min Temperature 77 °F 63 °F 51 °F (2000)
Cooling Degree Days 20    
Growing Degree Days 36 (Base 50)    
Moisture  
Dew Point 69 °F    
Average Humidity 57    
Maximum Humidity 74    
Minimum Humidity 45    
Precipitation  
Precipitation 0.00 in - - ()
Sea Level Pressure  
Sea Level Pressure 29.72 in    
Wind  
Wind Speed 8 mph (WSW)    
Max Wind Speed 14 mph    
Max Gust Speed 23 mph    
Visibility 9 miles    
Events Thunderstorm    
Averages and records for this station are not official NWS values.
T = Trace of Precipitation, MM = Missing Value Source: NWS Daily Summary

Daily Weather History Graph

Daily Weather History Graph

Search for Another Location

Airport or City:

Trip Planner

Search our weather history database for the weather conditions in past years. The results will help you decide how hot, cold, wet, or windy it might be!

Date:

Astronomy

Jul. 20, 2013 Rise Set
Actual Time 5:24 AM EDT 8:16 PM EDT
Civil Twilight 4:51 AM EDT 8:49 PM EDT
Nautical Twilight 4:08 AM EDT 9:32 PM EDT
Astronomical Twilight 3:19 AM EDT 10:20 PM EDT
Moon 6:16 PM EDT (7/20) 3:01 AM EDT (7/20)
Length of Visible Light 15h 58m
Length of Day
14h 52m
Waxing Gibbous, 93% of the Moon is Illuminated
Jul 20
Waxing Gibbous
Jul 22
Full
Jul 29
Last Quarter
Aug 6
New
Aug 14
First Quarter

Hourly Weather History & Observations

Time (EDT) Temp. Heat Index Dew Point Humidity Pressure Visibility Wind Dir Wind Speed Gust Speed Precip Events Conditions
12:54 AM 86.0 °F 93.0 °F 73.0 °F 65% 29.75 in 8.0 mi West 9.2 mph - N/A   Partly Cloudy
1:54 AM 84.0 °F 84.9 °F 63.0 °F 49% 29.75 in 10.0 mi West 5.8 mph - N/A   Clear
2:54 AM 81.0 °F 84.1 °F 69.1 °F 67% 29.73 in 10.0 mi SSW 6.9 mph - N/A   Clear
3:54 AM 80.1 °F 83.2 °F 70.0 °F 71% 29.72 in 9.0 mi SSW 5.8 mph - N/A   Clear
4:54 AM 80.1 °F 82.9 °F 69.1 °F 69% 29.72 in 10.0 mi SSW 5.8 mph - N/A   Clear
5:54 AM 80.1 °F 82.9 °F 69.1 °F 69% 29.72 in 10.0 mi South 5.8 mph - N/A   Clear
6:54 AM 81.0 °F 85.2 °F 72.0 °F 74% 29.73 in 7.0 mi SSW 4.6 mph - N/A   Clear
7:54 AM 82.9 °F 89.4 °F 73.9 °F 74% 29.74 in 6.0 mi SW 5.8 mph - N/A   Haze
8:54 AM 84.0 °F 91.2 °F 73.9 °F 72% 29.74 in 6.0 mi West 6.9 mph - N/A   Haze
9:54 AM 88.0 °F 96.5 °F 73.9 °F 63% 29.72 in 8.0 mi Variable 6.9 mph - N/A   Clear
10:54 AM 89.1 °F 96.0 °F 72.0 °F 57% 29.71 in 10.0 mi WSW 11.5 mph 19.6 mph N/A   Clear
11:54 AM 90.0 °F 96.4 °F 71.1 °F 54% 29.70 in 10.0 mi West 10.4 mph 19.6 mph N/A   Clear
12:54 PM 91.9 °F 98.4 °F 71.1 °F 50% 29.68 in 10.0 mi WSW 10.4 mph 16.1 mph N/A   Clear
1:54 PM 93.0 °F 100.1 °F 71.1 °F 49% 29.66 in 10.0 mi WSW 13.8 mph - N/A   Partly Cloudy
2:09 PM 91.4 °F 96.8 °F 69.8 °F 49% 29.66 in 10.0 mi SW 13.8 mph - N/A Thunderstorm Partly Cloudy
2:54 PM 91.0 °F 95.6 °F 69.1 °F 48% 29.66 in 10.0 mi WSW 11.5 mph 20.7 mph N/A   Partly Cloudy
3:29 PM 91.4 °F 96.8 °F 69.8 °F 49% 29.67 in 10.0 mi West 11.5 mph 18.4 mph N/A Thunderstorm Clear
3:44 PM 91.4 °F 96.8 °F 69.8 °F 49% 29.66 in 10.0 mi WSW 13.8 mph 23.0 mph N/A   Clear
3:54 PM 91.0 °F 95.2 °F 68.0 °F 47% 29.66 in 10.0 mi WSW 11.5 mph 19.6 mph N/A   Clear
4:54 PM 89.1 °F 91.0 °F 64.9 °F 45% 29.68 in 10.0 mi West 12.7 mph - N/A   Partly Cloudy
5:54 PM 88.0 °F 90.3 °F 66.0 °F 48% 29.70 in 10.0 mi WSW 10.4 mph - N/A   Clear
6:54 PM 87.1 °F 89.9 °F 66.9 °F 51% 29.70 in 10.0 mi WSW 6.9 mph - N/A   Partly Cloudy
7:54 PM 84.9 °F 87.1 °F 66.0 °F 53% 29.73 in 10.0 mi West 11.5 mph - N/A   Clear
8:54 PM 82.9 °F 84.4 °F 64.0 °F 53% 29.75 in 10.0 mi West 6.9 mph - N/A   Scattered Clouds
9:54 PM 81.0 °F 81.6 °F 60.1 °F 49% 29.77 in 10.0 mi West 10.4 mph - N/A   Clear
10:54 PM 78.1 °F - 61.0 °F 56% 29.80 in 10.0 mi West 4.6 mph - N/A   Clear
11:54 PM 77.0 °F - 62.1 °F 60% 29.82 in 10.0 mi West 4.6 mph - N/A   Clear